Weather History for Athens McMinn County Airport, TN

Change the Weather History Date:

Thursday, February 27, 2014

  Actual Average Record
Temperature  
Mean Temperature 28 °F -  
Max Temperature 44 °F 54 °F 44 °F (2014)
Min Temperature 12 °F 30 °F 12 °F (2014)
Degree Days  
Heating Degree Days 37    
Moisture  
Dew Point 9 °F    
Average Humidity 52    
Maximum Humidity 92    
Minimum Humidity 21    
Precipitation  
Precipitation 0.00 in - - ()
Sea Level Pressure  
Sea Level Pressure 30.01 in    
Wind  
Wind Speed 1 mph (NW)    
Max Wind Speed 8 mph    
Max Gust Speed -    
Visibility 10 miles    
Events      
Averages and records for this station are not official NWS values.
T = Trace of Precipitation, MM = Missing Value Source: NWS Daily Summary

Daily Weather History Graph

Daily Weather History Graph

Search for Another Location

Airport:

Trip Planner

Search our weather history database for the weather conditions in past years. The results will help you decide how hot, cold, wet, or windy it might be!

Date:

Astronomy

Feb. 27, 2014 Rise Set
Actual Time 7:10 AM EST 6:31 PM EST
Civil Twilight 6:44 AM EST 6:57 PM EST
Nautical Twilight 6:15 AM EST 7:26 PM EST
Astronomical Twilight 5:46 AM EST 7:56 PM EST
Moon 5:39 AM EST (2/27) 4:58 PM EST (2/27)
Length of Visible Light 12h 12m
Length of Day
11h 21m
Waning Crescent, 4% of the Moon is Illuminated
Feb 27
Waning Crescent
Mar 1
New
Mar 8
First Quarter
Mar 16
Full
Mar 23
Last Quarter

Hourly Weather History & Observations

Time (EST) Temp. Windchill Dew Point Humidity Pressure Visibility Wind Dir Wind Speed Gust Speed Precip Events Conditions
12:35 AM 19.4 °F - 12.2 °F 74% 29.98 in 10.0 mi Calm Calm - N/A   Clear
12:55 AM 19.4 °F - 12.2 °F 74% 29.98 in 10.0 mi Calm Calm - N/A   Clear
1:15 AM 19.4 °F - 12.2 °F 74% 29.99 in 10.0 mi Calm Calm - N/A   Clear
1:35 AM 19.4 °F - 12.2 °F 74% 29.99 in 10.0 mi Calm Calm - N/A   Clear
1:55 AM 17.6 °F - 12.2 °F 79% 29.99 in 10.0 mi Calm Calm - N/A   Clear
2:15 AM 17.6 °F - 12.2 °F 79% 30.00 in 10.0 mi Calm Calm - N/A   Clear
2:35 AM 17.6 °F - 12.2 °F 79% 29.99 in 10.0 mi Calm Calm - N/A   Clear
2:55 AM 17.6 °F - 14.0 °F 86% 29.99 in 10.0 mi Calm Calm - N/A   Clear
3:15 AM 17.6 °F - 14.0 °F 86% 29.99 in 10.0 mi Calm Calm - N/A   Clear
3:35 AM 15.8 °F - 12.2 °F 86% 29.99 in 10.0 mi Calm Calm - N/A   Clear
3:55 AM 15.8 °F - 10.4 °F 79% 30.00 in 10.0 mi Calm Calm - N/A   Clear
4:15 AM 15.8 °F - 10.4 °F 79% 30.00 in 10.0 mi Calm Calm - N/A   Clear
4:35 AM 15.8 °F - 12.2 °F 86% 30.00 in 10.0 mi Calm Calm - N/A   Clear
4:55 AM 14.0 °F - 10.4 °F 86% 30.01 in 10.0 mi Calm Calm - N/A   Clear
5:15 AM 14.0 °F - 10.4 °F 86% 30.00 in 10.0 mi Calm Calm - N/A   Clear
5:35 AM 14.0 °F - 10.4 °F 86% 30.01 in 10.0 mi Calm Calm - N/A   Clear
5:55 AM 12.2 °F - 10.4 °F 92% 30.01 in 10.0 mi Calm Calm - N/A   Clear
6:15 AM 12.2 °F - 10.4 °F 92% 30.02 in 10.0 mi Calm Calm - N/A   Clear
6:35 AM 12.2 °F - 10.4 °F 92% 30.02 in 10.0 mi Calm Calm - N/A   Clear
6:55 AM 12.2 °F - 10.4 °F 92% 30.02 in 10.0 mi Calm Calm - N/A   Clear
7:15 AM 12.2 °F - 8.6 °F 85% 30.03 in 10.0 mi Calm Calm - N/A   Clear
7:35 AM 12.2 °F - 10.4 °F 92% 30.03 in 10.0 mi Calm Calm - N/A   Clear
8:15 AM 17.6 °F - 12.2 °F 79% 30.05 in 9.0 mi Calm Calm - N/A   Clear
8:35 AM 21.2 °F - 15.8 °F 80% 30.05 in 10.0 mi Calm Calm - N/A   Clear
8:55 AM 24.8 °F 20.5 °F 12.2 °F 59% 30.05 in 10.0 mi South 3.5 mph - N/A   Clear
9:15 AM 26.6 °F - 10.4 °F 51% 30.06 in 10.0 mi Calm Calm - N/A   Clear
9:35 AM 26.6 °F - 8.6 °F 47% 30.06 in 10.0 mi Calm Calm - N/A   Clear
9:55 AM 26.6 °F - 6.8 °F 43% 30.05 in 10.0 mi Calm Calm - N/A   Clear
10:15 AM 28.4 °F 22.2 °F 6.8 °F 40% 30.05 in 10.0 mi Variable 5.8 mph - N/A   Clear
10:35 AM 28.4 °F 22.2 °F 3.2 °F 34% 30.05 in 10.0 mi Variable 5.8 mph - N/A   Clear
10:55 AM 30.2 °F 24.3 °F 3.2 °F 32% 30.05 in 10.0 mi NNW 5.8 mph - N/A   Clear
11:15 AM 30.2 °F 25.4 °F 3.2 °F 32% 30.04 in 10.0 mi SW 4.6 mph - N/A   Clear
11:35 AM 30.2 °F 24.3 °F 3.2 °F 32% 30.04 in 10.0 mi Variable 5.8 mph - N/A   Clear
11:55 AM 33.8 °F 29.6 °F 5.0 °F 30% 30.04 in 10.0 mi Variable 4.6 mph - N/A   Clear
12:15 PM 33.8 °F 28.6 °F 5.0 °F 30% 30.04 in 10.0 mi NNW 5.8 mph - N/A   Clear
12:35 PM 35.6 °F 32.8 °F 6.8 °F 30% 30.03 in 10.0 mi Variable 3.5 mph - N/A   Clear
12:55 PM 35.6 °F 30.7 °F 5.0 °F 28% 30.02 in 10.0 mi NNW 5.8 mph - N/A   Clear
1:15 PM 35.6 °F - 6.8 °F 30% 30.01 in 10.0 mi Calm Calm - N/A   Clear
1:35 PM 37.4 °F 33.8 °F 6.8 °F 28% 29.99 in 10.0 mi Variable 4.6 mph - N/A   Clear
1:55 PM 39.2 °F 35.9 °F 6.8 °F 26% 29.99 in 10.0 mi Variable 4.6 mph - N/A   Clear
2:15 PM 39.2 °F 37.0 °F 6.8 °F 26% 29.98 in 10.0 mi Variable 3.5 mph - N/A   Clear
2:35 PM 41.0 °F - 6.8 °F 24% 29.98 in 10.0 mi Calm Calm - N/A   Clear
2:55 PM 42.8 °F 40.1 °F 8.6 °F 25% 29.97 in 10.0 mi NNW 4.6 mph - N/A   Clear
3:15 PM 42.8 °F 39.3 °F 6.8 °F 23% 29.97 in 10.0 mi WNW 5.8 mph - N/A   Clear
3:35 PM 42.8 °F 39.3 °F 6.8 °F 23% 29.97 in 10.0 mi Variable 5.8 mph - N/A   Clear
3:55 PM 42.8 °F 40.1 °F 6.8 °F 23% 29.97 in 10.0 mi North 4.6 mph - N/A   Clear
4:15 PM 44.6 °F 40.7 °F 6.8 °F 21% 29.96 in 10.0 mi Variable 6.9 mph - N/A   Clear
4:35 PM 44.6 °F 42.2 °F 6.8 °F 21% 29.96 in 10.0 mi WNW 4.6 mph - N/A   Clear
4:55 PM 42.8 °F 41.1 °F 6.8 °F 23% 29.96 in 10.0 mi WNW 3.5 mph - N/A   Clear
5:15 PM 42.8 °F 39.3 °F 6.8 °F 23% 29.97 in 10.0 mi WNW 5.8 mph - N/A   Clear
5:35 PM 42.8 °F 38.0 °F 6.8 °F 23% 29.97 in 10.0 mi WNW 8.1 mph - N/A   Clear
5:55 PM 42.8 °F 40.1 °F 6.8 °F 23% 29.98 in 10.0 mi West 4.6 mph - N/A   Clear
6:15 PM 41.0 °F 39.0 °F 6.8 °F 24% 29.99 in 10.0 mi Variable 3.5 mph - N/A   Clear
6:35 PM 39.2 °F 35.9 °F 6.8 °F 26% 29.99 in 10.0 mi WNW 4.6 mph - N/A   Clear
6:55 PM 37.4 °F - 6.8 °F 28% 29.99 in 10.0 mi Calm Calm - N/A   Clear
7:15 PM 37.4 °F 34.9 °F 6.8 °F 28% 30.00 in 10.0 mi WNW 3.5 mph - N/A   Clear
7:35 PM 37.4 °F 34.9 °F 6.8 °F 28% 30.01 in 10.0 mi WNW 3.5 mph - N/A   Clear
7:55 PM 35.6 °F 32.8 °F 6.8 °F 30% 30.01 in 10.0 mi NW 3.5 mph - N/A   Clear
8:15 PM 35.6 °F 31.7 °F 6.8 °F 30% 30.01 in 10.0 mi WNW 4.6 mph - N/A   Clear
8:35 PM 32.0 °F - 8.6 °F 38% 30.02 in 10.0 mi Calm Calm - N/A   Clear
8:55 PM 30.2 °F - 8.6 °F 40% 30.02 in 10.0 mi Calm Calm - N/A   Clear
9:15 PM 28.4 °F - 12.2 °F 51% 30.02 in 10.0 mi Calm Calm - N/A   Clear
9:35 PM 26.6 °F 22.6 °F 12.2 °F 55% 30.03 in 10.0 mi NNW 3.5 mph - N/A   Clear
9:55 PM 26.6 °F 22.6 °F 12.2 °F 55% 30.04 in 10.0 mi NNW 3.5 mph - N/A   Clear
10:15 PM 24.8 °F - 14.0 °F 64% 30.05 in 10.0 mi Calm Calm - N/A   Clear
10:35 PM 26.6 °F - 10.4 °F 51% 30.06 in 10.0 mi Calm Calm - N/A   Clear
10:55 PM 24.8 °F - 12.2 °F 59% 30.06 in 10.0 mi Calm Calm - N/A   Clear
11:15 PM 24.8 °F - 12.2 °F 59% 30.07 in 10.0 mi Calm Calm - N/A   Clear
11:35 PM 23.0 °F - 15.8 °F 74% 30.06 in 10.0 mi Calm Calm - N/A   Clear
11:55 PM 21.2 °F - 14.0 °F 74% 30.07 in 10.0 mi Calm Calm - N/A   Clear